• In Uzbekistan
  • List of Countries
  • For 7 days
  • Water Temperature
  • Satellite Maps
  • Weather Map
  • Weather Widgets
  • user-avatar
    Login

    Hourly Weather Poti

    Today, 20 November, Monday

    Time Temperature Precipitation Wind Pressure Humidity
    00:00 +17°C° 0 mm 4 mps 760 mmHg 51%
    01:00 +16°C° 0.1 mm 3 mps 760 mmHg 52%
    02:00 +16°C° 0.1 mm 3 mps 760 mmHg 54%
    03:00 +16°C° 0 mm 2 mps 760 mmHg 53%
    04:00 +14°C° 0.1 mm 3 mps 760 mmHg 55%
    05:00 +14°C° 0.1 mm 3 mps 760 mmHg 56%
    06:00 +14°C° 0.1 mm 4 mps 760 mmHg 58%
    07:00 +15°C° 0 mm 4 mps 760 mmHg 57%
    08:00 +16°C° 0 mm 5 mps 760 mmHg 56%
    09:00 +17°C° 0 mm 5 mps 759 mmHg 54%
    10:00 +19°C° 0 mm 5 mps 759 mmHg 50%
    11:00 +21°C° 0 mm 5 mps 758 mmHg 45%
    12:00 +22°C° 0 mm 5 mps 758 mmHg 41%
    13:00 +22°C° 0 mm 4 mps 758 mmHg 42%
    14:00 +22°C° 0 mm 4 mps 757 mmHg 43%
    15:00 +22°C° 0 mm 4 mps 757 mmHg 46%
    16:00 +20°C° 0 mm 4 mps 757 mmHg 47%
    17:00 +19°C° 0 mm 5 mps 757 mmHg 49%
    18:00 +17°C° 0 mm 5 mps 757 mmHg 50%
    19:00 +17°C° 0 mm 5 mps 757 mmHg 49%
    20:00 +16°C° 0 mm 5 mps 757 mmHg 48%
    21:00 +16°C° 0 mm 6 mps 756 mmHg 47%
    22:00 +16°C° 0 mm 6 mps 756 mmHg 47%
    23:00 +16°C° 0 mm 6 mps 756 mmHg 47%

    Tomorrow, 21 November, Tuesday

    Time Temperature Precipitation Wind Pressure Humidity
    00:00 +16°C° 0 mm 6 mps 756 mmHg 47%
    01:00 +16°C° 0 mm 6 mps 756 mmHg 47%
    02:00 +16°C° 0 mm 6 mps 755 mmHg 47%
    03:00 +16°C° 0 mm 6 mps 755 mmHg 48%
    04:00 +16°C° 0 mm 6 mps 755 mmHg 48%
    05:00 +16°C° 0 mm 6 mps 754 mmHg 48%
    06:00 +16°C° 0 mm 6 mps 754 mmHg 48%
    07:00 +16°C° 0 mm 6 mps 753 mmHg 48%
    08:00 +17°C° 0 mm 7 mps 753 mmHg 48%
    09:00 +17°C° 0 mm 7 mps 752 mmHg 48%
    10:00 +20°C° 0 mm 7 mps 752 mmHg 45%
    11:00 +21°C° 0 mm 7 mps 751 mmHg 43%
    12:00 +22°C° 0 mm 6 mps 750 mmHg 41%
    13:00 +22°C° 0 mm 7 mps 750 mmHg 41%
    14:00 +22°C° 0 mm 7 mps 750 mmHg 41%
    15:00 +21°C° 0 mm 7 mps 750 mmHg 41%
    16:00 +18°C° 0.6 mm 8 mps 751 mmHg 54%
    17:00 +16°C° 0.6 mm 10 mps 752 mmHg 68%
    18:00 +13°C° 0.6 mm 11 mps 753 mmHg 81%
    19:00 +12°C° 2.4 mm 11 mps 754 mmHg 83%
    20:00 +11°C° 2.4 mm 11 mps 755 mmHg 86%
    21:00 +9°C° 2.4 mm 11 mps 756 mmHg 89%
    22:00 +9°C° 1.7 mm 10 mps 757 mmHg 90%
    23:00 +8°C° 1.7 mm 9 mps 758 mmHg 91%

    Day after tomorrow, 22 November, Wednesday

    Time Temperature Precipitation Wind Pressure Humidity
    00:00 +9°C° 1.7 mm 8 mps 759 mmHg 91%
    01:00 +9°C° 1.6 mm 8 mps 759 mmHg 92%
    02:00 +7°C° 1.6 mm 8 mps 760 mmHg 93%
    03:00 +7°C° 1.6 mm 8 mps 760 mmHg 93%
    04:00 +8°C° 1.1 mm 7 mps 760 mmHg 91%
    05:00 +8°C° 1.1 mm 7 mps 760 mmHg 90%
    06:00 +8°C° 1.1 mm 6 mps 761 mmHg 88%
    07:00 +8°C° 0.7 mm 6 mps 761 mmHg 86%
    08:00 +8°C° 0.7 mm 6 mps 762 mmHg 85%
    09:00 +8°C° 0.7 mm 5 mps 762 mmHg 83%
    10:00 +8°C° 0.7 mm 5 mps 762 mmHg 81%
    11:00 +8°C° 0.7 mm 5 mps 762 mmHg 80%
    12:00 +8°C° 0.7 mm 5 mps 762 mmHg 78%
    13:00 +8°C° 0.5 mm 5 mps 762 mmHg 78%
    14:00 +8°C° 0.5 mm 5 mps 762 mmHg 78%
    15:00 +8°C° 0.5 mm 5 mps 763 mmHg 78%
    16:00 +7°C° 0.3 mm 5 mps 763 mmHg 80%
    17:00 +6°C° 0.3 mm 4 mps 763 mmHg 82%
    18:00 +6°C° 0.3 mm 4 mps 763 mmHg 85%
    19:00 +6°C° 0.3 mm 4 mps 763 mmHg 85%
    20:00 +5°C° 0.3 mm 4 mps 763 mmHg 85%
    21:00 +5°C° 0.3 mm 4 mps 763 mmHg 85%
    22:00 +5°C° 0.4 mm 4 mps 763 mmHg 84%
    23:00 +4°C° 0.4 mm 4 mps 763 mmHg 83%

    23 November, Thursday

    Time Temperature Precipitation Wind Pressure Humidity
    00:00 +3°C° 0.4 mm 5 mps 763 mmHg 82%
    01:00 +3°C° 0.6 mm 6 mps 762 mmHg 82%
    02:00 +2°C° 0.6 mm 6 mps 762 mmHg 81%
    03:00 +2°C° 0.6 mm 7 mps 762 mmHg 80%
    04:00 +2°C° 2 mm 7 mps 762 mmHg 79%
    05:00 +2°C° 2 mm 7 mps 762 mmHg 78%
    06:00 +2°C° 2 mm 6 mps 762 mmHg 77%
    07:00 +3°C° 1.6 mm 6 mps 762 mmHg 79%
    08:00 +3°C° 1.6 mm 6 mps 763 mmHg 81%
    09:00 +3°C° 1.6 mm 5 mps 763 mmHg 83%
    10:00 +3°C° 1.3 mm 5 mps 763 mmHg 84%
    11:00 +3°C° 1.3 mm 5 mps 762 mmHg 85%
    12:00 +5°C° 1.3 mm 5 mps 762 mmHg 85%
    13:00 +5°C° 1 mm 4 mps 762 mmHg 87%
    14:00 +5°C° 1 mm 4 mps 763 mmHg 89%
    15:00 +5°C° 1 mm 3 mps 763 mmHg 90%
    16:00 +4°C° 0.8 mm 3 mps 763 mmHg 91%
    17:00 +4°C° 0.8 mm 3 mps 764 mmHg 91%
    18:00 +4°C° 0.8 mm 3 mps 764 mmHg 91%
    19:00 +4°C° 0.7 mm 3 mps 765 mmHg 91%
    20:00 +3°C° 0.7 mm 3 mps 765 mmHg 91%
    21:00 +3°C° 0.7 mm 3 mps 766 mmHg 91%
    22:00 +3°C° 0.5 mm 3 mps 766 mmHg 91%
    23:00 +3°C° 0.5 mm 3 mps 767 mmHg 91%

    24 November, Friday

    Time Temperature Precipitation Wind Pressure Humidity
    00:00 +2°C° 0.5 mm 3 mps 767 mmHg 90%
    01:00 +2°C° 0.5 mm 3 mps 767 mmHg 90%
    02:00 +2°C° 0.5 mm 3 mps 768 mmHg 90%
    03:00 +1°C° 0.5 mm 3 mps 768 mmHg 89%
    04:00 +1°C° 0.4 mm 3 mps 768 mmHg 88%
    05:00 +1°C° 0.4 mm 3 mps 769 mmHg 87%
    06:00 +1°C° 0.4 mm 3 mps 769 mmHg 86%
    07:00 +1°C° 0.4 mm 3 mps 769 mmHg 84%
    08:00 +2°C° 0.4 mm 3 mps 769 mmHg 82%
    09:00 +1°C° 0.4 mm 4 mps 769 mmHg 80%
    10:00 +3°C° 0.5 mm 4 mps 769 mmHg 80%
    11:00 +3°C° 0.5 mm 4 mps 768 mmHg 79%
    12:00 +4°C° 0.5 mm 4 mps 768 mmHg 79%
    13:00 +4°C° 0.6 mm 4 mps 767 mmHg 81%
    14:00 +4°C° 0.6 mm 4 mps 767 mmHg 84%
    15:00 +4°C° 0.6 mm 4 mps 767 mmHg 86%
    16:00 +3°C° 0.7 mm 4 mps 767 mmHg 87%
    17:00 +3°C° 0.7 mm 4 mps 768 mmHg 88%
    18:00 +3°C° 0.7 mm 4 mps 768 mmHg 90%
    19:00 +2°C° 1.8 mm 5 mps 768 mmHg 89%
    20:00 +1°C° 1.8 mm 6 mps 769 mmHg 89%
    21:00 +1°C° 1.8 mm 6 mps 769 mmHg 88%
    22:00 +1°C° 1.1 mm 6 mps 769 mmHg 88%
    23:00 +1°C° 1.1 mm 6 mps 769 mmHg 88%

    25 November, Saturday

    Time Temperature Precipitation Wind Pressure Humidity
    00:00 +1°C° 1.1 mm 6 mps 770 mmHg 88%
    01:00 -1°C° 0.6 mm 6 mps 770 mmHg 88%
    02:00 0°C° 0.6 mm 5 mps 770 mmHg 88%
    03:00 0°C° 0.6 mm 5 mps 771 mmHg 88%
    04:00 0°C° 0.6 mm 5 mps 771 mmHg 89%
    05:00 +1°C° 0.6 mm 4 mps 771 mmHg 90%
    06:00 +1°C° 0.6 mm 4 mps 772 mmHg 91%
    07:00 +1°C° 0.5 mm 4 mps 772 mmHg 91%
    08:00 +3°C° 0.5 mm 4 mps 772 mmHg 91%
    09:00 +3°C° 0.5 mm 4 mps 772 mmHg 91%
    10:00 +4°C° 0.3 mm 4 mps 772 mmHg 90%
    11:00 +4°C° 0.3 mm 3 mps 772 mmHg 89%
    12:00 +5°C° 0.3 mm 3 mps 771 mmHg 88%
    13:00 +5°C° 0.1 mm 3 mps 771 mmHg 89%
    14:00 +5°C° 0.1 mm 3 mps 771 mmHg 89%
    15:00 +6°C° 0.1 mm 2 mps 771 mmHg 89%
    16:00 +5°C° 0.1 mm 2 mps 772 mmHg 89%
    17:00 +5°C° 0.1 mm 2 mps 772 mmHg 88%
    18:00 +4°C° 0.1 mm 2 mps 772 mmHg 88%
    19:00 +4°C° 0.1 mm 2 mps 772 mmHg 87%
    20:00 +2°C° 0.1 mm 3 mps 772 mmHg 87%
    21:00 +2°C° 0.1 mm 3 mps 772 mmHg 86%
    22:00 +2°C° 0.1 mm 3 mps 772 mmHg 86%
    23:00 +2°C° 0.1 mm 3 mps 772 mmHg 85%
    Show more